ACA79 CYYZ-OMDB

Flight info

Callsign ACA79
Flight time N/A
Altitude 33000
Route SEDOG6 BOBSU DCT BAREE N647B RIKAL/M083F350 NATS NETKI/N0488F330 DCT BOFUM Q37 DONAX DCT KEPAD L15 FINMA DCT CHT DCT ITVIP DCT KONAN DCT KOK UL607 FERDI DCT REMBA DCT SPI DCT ULNOK DCT VIBOM DCT NOMBO DCT RIDAR DCT RADIZ DCT NEMEK DCT ELTIB DCT GLOMY DCT PETAK DCT DIMIS DCT SALUN/N0493F350 N705 MMA P751 DASUM Y234 FYM M872 BDB Y214 MOBAG/N0495F370 Y214 RAPMA DCT KUVSO DCT KATIT DCT PEKEM M628 RIGIL G783 ELUDA/N0502F350 G783 ASPED Q308 KIPOK Q568 IMPED
Aircraft A35K/H-SDE2E3GHIJ3J4J5LM1ORWXY/LB1D1

Departure

Time 2026-05-08 01:37
Airport Toronto Pearson International Airport (CYYZ)

Arrival

Time N/A
Airport Dubai International Airport (OMDB)
Time Latitude Longitude Altitude Speed Heading
2026-05-08 01:12 43.67763 -79.61330 567 ft 0 kts 136°
2026-05-08 01:25 43.67767 -79.61335 567 ft 3 kts 136°
2026-05-08 01:26 43.67786 -79.61361 568 ft 4 kts 136°
2026-05-08 01:26 43.67801 -79.61382 576 ft 4 kts 146°
2026-05-08 01:26 43.67817 -79.61393 575 ft 4 kts 185°
2026-05-08 01:26 43.67834 -79.61385 576 ft 4 kts 220°
2026-05-08 01:27 43.67850 -79.61365 576 ft 0 kts 226°
2026-05-08 01:29 43.67849 -79.61366 576 ft 0 kts 226°
2026-05-08 01:29 43.67826 -79.61398 573 ft 10 kts 225°
2026-05-08 01:29 43.67770 -79.61478 574 ft 12 kts 225°
2026-05-08 01:30 43.67711 -79.61562 572 ft 12 kts 226°
2026-05-08 01:30 43.67655 -79.61642 574 ft 11 kts 226°
2026-05-08 01:30 43.67645 -79.61722 574 ft 7 kts 293°
2026-05-08 01:30 43.67678 -79.61780 577 ft 9 kts 313°
2026-05-08 01:31 43.67737 -79.61864 575 ft 16 kts 314°
2026-05-08 01:31 43.67834 -79.61994 576 ft 21 kts 317°
2026-05-08 01:31 43.67953 -79.62092 574 ft 19 kts 333°
2026-05-08 01:31 43.68050 -79.62204 573 ft 18 kts 317°
2026-05-08 01:32 43.68138 -79.62318 574 ft 17 kts 317°
2026-05-08 01:32 43.68229 -79.62434 573 ft 18 kts 320°
2026-05-08 01:32 43.68319 -79.62541 570 ft 18 kts 316°
2026-05-08 01:32 43.68416 -79.62668 570 ft 20 kts 316°
2026-05-08 01:33 43.68514 -79.62799 570 ft 19 kts 316°
2026-05-08 01:33 43.68624 -79.62940 575 ft 24 kts 316°
2026-05-08 01:33 43.68756 -79.63112 572 ft 28 kts 316°
2026-05-08 01:33 43.68893 -79.63290 572 ft 26 kts 317°
2026-05-08 01:34 43.69018 -79.63452 573 ft 22 kts 316°
2026-05-08 01:34 43.69123 -79.63509 573 ft 13 kts 26°
2026-05-08 01:34 43.69200 -79.63436 575 ft 16 kts 21°
2026-05-08 01:34 43.69288 -79.63422 571 ft 0 kts
2026-05-08 01:35 43.69290 -79.63422 571 ft 1 kts
2026-05-08 01:35 43.69301 -79.63422 573 ft 2 kts
2026-05-08 01:35 43.69340 -79.63426 571 ft 8 kts 347°
2026-05-08 01:35 43.69389 -79.63492 575 ft 13 kts 285°
2026-05-08 01:36 43.69356 -79.63587 575 ft 12 kts 227°
2026-05-08 01:36 43.69276 -79.63707 572 ft 34 kts 227°
2026-05-08 01:36 43.68961 -79.64163 577 ft 96 kts 226°
2026-05-08 01:36 43.68361 -79.65032 575 ft 152 kts 226°
2026-05-08 01:37 43.67536 -79.66232 763 ft 178 kts 227°
2026-05-08 01:37 43.66694 -79.67439 1505 ft 175 kts 228°
2026-05-08 01:37 43.65942 -79.68831 1922 ft 188 kts 239°
2026-05-08 01:37 43.65220 -79.70387 2117 ft 198 kts 239°
2026-05-08 01:38 43.64441 -79.72016 2297 ft 209 kts 238°
2026-05-08 01:38 43.63603 -79.73710 2498 ft 220 kts 237°
2026-05-08 01:38 43.62697 -79.75511 2609 ft 236 kts 237°
2026-05-08 01:38 43.61740 -79.77394 2889 ft 245 kts 237°
2026-05-08 01:39 43.60748 -79.79333 3320 ft 249 kts 236°
2026-05-08 01:39 43.60139 -79.80522 3596 ft 250 kts 236°
2026-05-08 01:39 43.59127 -79.82494 4038 ft 252 kts 236°
2026-05-08 01:39 43.58173 -79.84525 4482 ft 253 kts 245°
2026-05-08 01:40 43.57633 -79.86824 4923 ft 253 kts 264°
2026-05-08 01:40 43.57785 -79.89228 5371 ft 254 kts 289°
2026-05-08 01:40 43.58721 -79.91283 5830 ft 258 kts 315°
2026-05-08 01:40 43.60300 -79.92472 6278 ft 266 kts 346°
2026-05-08 01:41 43.62161 -79.92303 6711 ft 276 kts 15°
2026-05-08 01:41 43.63971 -79.91358 7171 ft 280 kts 18°
2026-05-08 01:41 43.65794 -79.90374 7632 ft 282 kts 17°
2026-05-08 01:41 43.67643 -79.89439 8121 ft 284 kts 15°
2026-05-08 01:42 43.69513 -79.88537 8603 ft 286 kts 15°
2026-05-08 01:42 43.71404 -79.87649 9094 ft 288 kts 14°
2026-05-08 01:42 43.73313 -79.86764 9587 ft 290 kts 14°
2026-05-08 01:42 43.75166 -79.85597 10021 ft 297 kts 29°
2026-05-08 01:43 43.76883 -79.83918 10302 ft 309 kts 34°
2026-05-08 01:43 43.78626 -79.82067 10492 ft 322 kts 34°
2026-05-08 01:43 43.80430 -79.80144 10686 ft 334 kts 34°
2026-05-08 01:43 43.82310 -79.78150 10881 ft 346 kts 34°
2026-05-08 01:44 43.84260 -79.76087 11079 ft 358 kts 34°
2026-05-08 01:44 43.86280 -79.73964 11282 ft 370 kts 34°
2026-05-08 01:44 43.88365 -79.71776 11469 ft 381 kts 34°
2026-05-08 01:44 43.90504 -79.69525 11687 ft 391 kts 34°
2026-05-08 01:45 43.92683 -79.67230 12097 ft 396 kts 34°
2026-05-08 01:45 43.94860 -79.64936 12555 ft 399 kts 34°
2026-05-08 01:45 43.97077 -79.62599 13027 ft 402 kts 34°
2026-05-08 01:45 43.99312 -79.60247 13517 ft 404 kts 34°
2026-05-08 01:46 44.01702 -79.58214 13939 ft 403 kts 21°
2026-05-08 01:46 44.04312 -79.56806 14397 ft 402 kts 16°
2026-05-08 01:46 44.06827 -79.55597 14830 ft 403 kts 16°
2026-05-08 01:46 44.09493 -79.54323 15280 ft 405 kts 16°
2026-05-08 01:47 44.12160 -79.53039 15746 ft 407 kts 16°
2026-05-08 01:47 44.14844 -79.51740 16196 ft 410 kts 16°
2026-05-08 01:47 44.17529 -79.50437 16651 ft 412 kts 16°
2026-05-08 01:48 44.22988 -79.47779 17597 ft 417 kts 16°
2026-05-08 01:48 44.25731 -79.46441 18069 ft 420 kts 16°
2026-05-08 01:48 44.28508 -79.45084 18492 ft 422 kts 16°
2026-05-08 01:48 44.31285 -79.43726 18832 ft 425 kts 16°
2026-05-08 01:49 44.34081 -79.42357 18935 ft 425 kts 16°
2026-05-08 01:49 44.36863 -79.40980 18937 ft 426 kts 18°
2026-05-08 01:49 44.39545 -79.39283 18937 ft 429 kts 26°
2026-05-08 01:49 44.42115 -79.37200 18933 ft 421 kts 28°
2026-05-08 01:50 44.44581 -79.35114 18943 ft 406 kts 28°
2026-05-08 01:50 44.46955 -79.33102 18945 ft 391 kts 28°
2026-05-08 01:50 44.49247 -79.31162 18944 ft 377 kts 28°
2026-05-08 01:50 44.51446 -79.29301 18943 ft 362 kts 28°
2026-05-08 01:51 44.53573 -79.27504 18945 ft 352 kts 28°
2026-05-08 01:51 44.55687 -79.25723 18948 ft 361 kts 28°
2026-05-08 01:51 44.57884 -79.23874 18932 ft 375 kts 28°
2026-05-08 01:51 44.60161 -79.21952 18927 ft 388 kts 28°
2026-05-08 01:52 44.62486 -79.19986 18929 ft 402 kts 28°
2026-05-08 01:52 44.64918 -79.17925 18923 ft 415 kts 28°
2026-05-08 01:52 44.67428 -79.15796 18921 ft 428 kts 29°
2026-05-08 01:52 44.70009 -79.13603 18912 ft 437 kts 29°
2026-05-08 01:53 44.72616 -79.11384 18920 ft 437 kts 29°
2026-05-08 01:53 44.75208 -79.09174 18920 ft 436 kts 29°
2026-05-08 01:53 44.77804 -79.06960 18921 ft 436 kts 29°
2026-05-08 01:53 44.80402 -79.04743 18922 ft 436 kts 29°
2026-05-08 01:54 44.82991 -79.02532 18915 ft 436 kts 29°
2026-05-08 01:54 44.84705 -79.01067 18918 ft 436 kts 29°
2026-05-08 01:54 44.87299 -78.98848 18918 ft 436 kts 29°
2026-05-08 01:54 44.89780 -78.96371 18919 ft 438 kts 40°
2026-05-08 01:55 44.92230 -78.91801 18921 ft 442 kts 64°
2026-05-08 01:55 44.92917 -78.89116 18920 ft 443 kts 76°
2026-05-08 01:55 44.93212 -78.84762 18923 ft 445 kts 94°
2026-05-08 01:55 44.92578 -78.80503 18908 ft 445 kts 111°
2026-05-08 01:56 44.91081 -78.76708 18927 ft 444 kts 129°
2026-05-08 01:56 44.88861 -78.73723 18928 ft 441 kts 147°
2026-05-08 01:56 44.86168 -78.71840 18925 ft 437 kts 165°
2026-05-08 01:56 44.83156 -78.71180 18923 ft 432 kts 183°
2026-05-08 01:57 44.80210 -78.71836 18924 ft 427 kts 201°
2026-05-08 01:57 44.77555 -78.73638 18934 ft 424 kts 213°
2026-05-08 01:57 44.75043 -78.75826 18923 ft 425 kts 214°
2026-05-08 01:57 44.72506 -78.77970 18927 ft 426 kts 212°
2026-05-08 01:58 44.69965 -78.80031 18927 ft 426 kts 212°
2026-05-08 01:58 44.67355 -78.82126 18928 ft 426 kts 212°
2026-05-08 01:58 44.64816 -78.84162 18927 ft 426 kts 212°
2026-05-08 01:58 44.62244 -78.86232 18933 ft 426 kts 212°
2026-05-08 01:59 44.59678 -78.88300 18930 ft 426 kts 212°
2026-05-08 01:59 44.57102 -78.90376 18934 ft 426 kts 212°
2026-05-08 01:59 44.54528 -78.92447 18932 ft 426 kts 212°
2026-05-08 01:59 44.51955 -78.94515 18929 ft 426 kts 212°
2026-05-08 02:00 44.49388 -78.96596 18927 ft 426 kts 214°
2026-05-08 02:00 44.47037 -78.99069 18928 ft 421 kts 227°
2026-05-08 02:00 44.45276 -79.02309 18935 ft 416 kts 244°
2026-05-08 02:00 44.44287 -79.06073 18936 ft 412 kts 260°
2026-05-08 02:01 44.44092 -79.10043 18928 ft 410 kts 275°
2026-05-08 02:01 44.44679 -79.13929 18932 ft 410 kts 290°
2026-05-08 02:01 44.46009 -79.17450 18933 ft 411 kts 306°
2026-05-08 02:01 44.47985 -79.20317 18935 ft 413 kts 321°
2026-05-08 02:02 44.50487 -79.22322 18940 ft 417 kts 337°
2026-05-08 02:02 44.53314 -79.23258 18940 ft 422 kts 353°
2026-05-08 02:02 44.56213 -79.23028 18937 ft 427 kts
2026-05-08 02:02 44.59025 -79.21615 18946 ft 432 kts 25°
2026-05-08 02:03 44.61701 -79.19539 18938 ft 435 kts 27°
2026-05-08 02:03 44.64280 -79.17428 18934 ft 435 kts 28°
2026-05-08 02:03 44.66901 -79.15288 18936 ft 435 kts 27°
2026-05-08 02:03 44.69521 -79.13163 18925 ft 435 kts 27°
2026-05-08 02:04 44.72144 -79.11043 18928 ft 435 kts 27°
2026-05-08 02:04 44.74770 -79.08924 18922 ft 435 kts 27°
2026-05-08 02:04 44.77398 -79.06805 18924 ft 435 kts 27°
2026-05-08 02:04 44.80023 -79.04687 18921 ft 435 kts 27°
2026-05-08 02:05 44.82646 -79.02569 18919 ft 435 kts 27°
2026-05-08 02:05 44.85280 -79.00441 18916 ft 435 kts 27°
2026-05-08 02:05 44.87891 -78.98306 18915 ft 436 kts 30°
2026-05-08 02:05 44.90299 -78.95679 18919 ft 439 kts 44°
2026-05-08 02:06 44.92088 -78.92210 18921 ft 442 kts 62°
2026-05-08 02:06 44.93075 -78.88102 18922 ft 444 kts 80°
2026-05-08 02:06 44.93153 -78.83758 18924 ft 445 kts 97°
2026-05-08 02:06 44.92315 -78.79567 18928 ft 445 kts 115°
2026-05-08 02:07 44.90638 -78.75922 18928 ft 443 kts 133°
2026-05-08 02:07 44.88283 -78.73161 18913 ft 440 kts 151°
2026-05-08 02:07 44.85505 -78.71543 18924 ft 436 kts 169°
2026-05-08 02:07 44.82513 -78.71173 18924 ft 432 kts 187°
2026-05-08 02:08 44.79603 -78.72100 18925 ft 426 kts 205°
2026-05-08 02:08 44.77013 -78.74056 18932 ft 424 kts 214°
2026-05-08 02:08 44.74501 -78.76262 18930 ft 425 kts 213°
2026-05-08 02:08 44.71955 -78.78397 18930 ft 426 kts 212°
2026-05-08 02:09 44.69380 -78.80481 18929 ft 426 kts 212°
2026-05-08 02:09 44.66808 -78.82556 18933 ft 426 kts 212°
2026-05-08 02:09 44.64239 -78.84630 18930 ft 426 kts 212°
2026-05-08 02:09 44.61663 -78.86699 18928 ft 426 kts 212°
2026-05-08 02:10 44.59083 -78.88766 18932 ft 426 kts 212°
2026-05-08 02:10 44.56510 -78.90835 18933 ft 426 kts 212°
2026-05-08 02:10 44.53946 -78.92899 18932 ft 426 kts 212°
2026-05-08 02:10 44.51377 -78.94966 18932 ft 426 kts 212°
2026-05-08 02:11 44.48826 -78.97078 18929 ft 425 kts 216°
2026-05-08 02:11 44.46585 -78.99714 18930 ft 420 kts 231°
2026-05-08 02:11 44.44986 -79.03092 18936 ft 415 kts 247°
2026-05-08 02:11 44.44169 -79.06920 18938 ft 411 kts 263°
2026-05-08 02:12 44.44140 -79.10845 18938 ft 410 kts 278°
2026-05-08 02:12 44.44885 -79.14693 18935 ft 410 kts 293°
2026-05-08 02:12 44.46359 -79.18100 18935 ft 411 kts 309°
2026-05-08 02:12 44.48468 -79.20819 18939 ft 414 kts 324°
2026-05-08 02:13 44.51052 -79.22610 18937 ft 418 kts 340°
2026-05-08 02:13 44.53926 -79.23308 18936 ft 423 kts 356°
2026-05-08 02:13 44.56862 -79.22811 18937 ft 429 kts 13°
2026-05-08 02:13 44.59623 -79.21179 18947 ft 433 kts 26°
2026-05-08 02:14 44.62171 -79.19154 18935 ft 435 kts 28°
2026-05-08 02:14 44.64811 -79.16991 18930 ft 436 kts 28°
2026-05-08 02:14 44.67426 -79.14859 18931 ft 436 kts 27°
2026-05-08 02:14 44.70056 -79.12726 18933 ft 435 kts 27°
2026-05-08 02:15 44.72684 -79.10603 18927 ft 435 kts 27°
2026-05-08 02:15 44.75394 -79.08764 18926 ft 430 kts 18°
2026-05-08 02:15 44.78228 -79.07752 18929 ft 423 kts
2026-05-08 02:15 44.81171 -79.07798 18926 ft 417 kts 348°
2026-05-08 02:16 44.83921 -79.08998 18924 ft 412 kts 332°
2026-05-08 02:16 44.86249 -79.11208 18924 ft 409 kts 316°
2026-05-08 02:16 44.88052 -79.14295 18918 ft 408 kts 300°
2026-05-08 02:16 44.89158 -79.17954 18919 ft 407 kts 284°
2026-05-08 02:17 44.89500 -79.21909 18918 ft 408 kts 269°
2026-05-08 02:17 44.89056 -79.25821 18917 ft 403 kts 253°
2026-05-08 02:17 44.87878 -79.29390 18922 ft 404 kts 238°
2026-05-08 02:17 44.86052 -79.32407 18826 ft 407 kts 223°
2026-05-08 02:18 44.83837 -79.34609 18602 ft 408 kts 213°
2026-05-08 02:18 44.81383 -79.36634 18360 ft 408 kts 212°
2026-05-08 02:18 44.78930 -79.38643 18098 ft 407 kts 213°
2026-05-08 02:18 44.76492 -79.40658 17810 ft 405 kts 213°
2026-05-08 02:19 44.74069 -79.42671 17546 ft 403 kts 213°
2026-05-08 02:19 44.71668 -79.44673 17280 ft 401 kts 213°
2026-05-08 02:19 44.69274 -79.46671 17009 ft 399 kts 213°
2026-05-08 02:19 44.66899 -79.48654 16736 ft 396 kts 213°
2026-05-08 02:20 44.64533 -79.50629 16472 ft 394 kts 213°
2026-05-08 02:20 44.62177 -79.52593 16205 ft 392 kts 213°
2026-05-08 02:20 44.59866 -79.54520 15948 ft 390 kts 213°
2026-05-08 02:20 44.57537 -79.56459 15687 ft 388 kts 213°
2026-05-08 02:21 44.55218 -79.58388 15428 ft 386 kts 213°
2026-05-08 02:21 44.52911 -79.60307 15174 ft 385 kts 213°
2026-05-08 02:21 44.50614 -79.62215 14916 ft 383 kts 213°
2026-05-08 02:21 44.48330 -79.64110 14660 ft 381 kts 213°
2026-05-08 02:22 44.46048 -79.66003 14415 ft 379 kts 213°
2026-05-08 02:22 44.43778 -79.67882 14166 ft 378 kts 213°
2026-05-08 02:22 44.41523 -79.69749 13921 ft 376 kts 213°
2026-05-08 02:22 44.39269 -79.71612 13662 ft 375 kts 213°
2026-05-08 02:23 44.37028 -79.73464 13376 ft 373 kts 213°
2026-05-08 02:23 44.34798 -79.75303 13112 ft 372 kts 213°
2026-05-08 02:23 44.32577 -79.77135 12831 ft 370 kts 213°
2026-05-08 02:23 44.30390 -79.78938 12552 ft 369 kts 213°
2026-05-08 02:24 44.28156 -79.80777 12294 ft 367 kts 213°
2026-05-08 02:24 44.25961 -79.82581 12035 ft 366 kts 213°
2026-05-08 02:24 44.23773 -79.84379 11763 ft 364 kts 213°
2026-05-08 02:24 44.21619 -79.86146 11498 ft 363 kts 213°
2026-05-08 02:25 44.19422 -79.87948 11241 ft 362 kts 213°
2026-05-08 02:25 44.17258 -79.89722 10969 ft 361 kts 213°
2026-05-08 02:25 44.15061 -79.91316 10701 ft 360 kts 208°
2026-05-08 02:25 44.12887 -79.93022 10448 ft 357 kts 214°
2026-05-08 02:26 44.10784 -79.94842 10196 ft 355 kts 214°
2026-05-08 02:26 44.08683 -79.96635 9994 ft 350 kts 214°
2026-05-08 02:26 44.06636 -79.98345 9888 ft 337 kts 214°
2026-05-08 02:26 44.04662 -79.99975 9766 ft 323 kts 214°
2026-05-08 02:27 44.02762 -80.01535 9639 ft 310 kts 214°
2026-05-08 02:27 44.00939 -80.03026 9514 ft 298 kts 214°
2026-05-08 02:27 43.99185 -80.04457 9383 ft 286 kts 214°
2026-05-08 02:27 43.97503 -80.05827 9242 ft 275 kts 214°
2026-05-08 02:28 43.95880 -80.07146 9105 ft 268 kts 214°
2026-05-08 02:28 43.94274 -80.08456 8832 ft 268 kts 214°
2026-05-08 02:28 43.92660 -80.09771 8554 ft 268 kts 214°
2026-05-08 02:28 43.91052 -80.11077 8296 ft 267 kts 214°
2026-05-08 02:29 43.89470 -80.12360 8042 ft 266 kts 214°
2026-05-08 02:29 43.87873 -80.13654 7772 ft 265 kts 214°
2026-05-08 02:29 43.86281 -80.14942 7513 ft 264 kts 214°
2026-05-08 02:29 43.84700 -80.16222 7264 ft 264 kts 214°
2026-05-08 02:30 43.83112 -80.17506 7002 ft 263 kts 214°
2026-05-08 02:30 43.81531 -80.18783 6749 ft 262 kts 214°
2026-05-08 02:30 43.79855 -80.19794 6510 ft 267 kts 197°
2026-05-08 02:30 43.77995 -80.19989 6287 ft 270 kts 182°
2026-05-08 02:31 43.76130 -80.20137 6034 ft 264 kts 202°
2026-05-08 02:31 43.74563 -80.21327 5817 ft 256 kts 220°
2026-05-08 02:31 43.72993 -80.22522 5560 ft 263 kts 200°
2026-05-08 02:31 43.71181 -80.22694 5345 ft 263 kts 175°
2026-05-08 02:32 43.69414 -80.22082 5100 ft 260 kts 163°
2026-05-08 02:32 43.67757 -80.21165 4876 ft 255 kts 161°
2026-05-08 02:32 43.66134 -80.20211 4646 ft 250 kts 160°
2026-05-08 02:32 43.64538 -80.19272 4401 ft 246 kts 160°
2026-05-08 02:33 43.62978 -80.18357 4163 ft 241 kts 160°
2026-05-08 02:33 43.61459 -80.17498 4003 ft 229 kts 165°
2026-05-08 02:33 43.59982 -80.17117 4054 ft 214 kts 178°
2026-05-08 02:33 43.58498 -80.16956 4005 ft 214 kts 180°
2026-05-08 02:34 43.57012 -80.16992 3998 ft 213 kts 189°
2026-05-08 02:34 43.55573 -80.17189 3998 ft 199 kts 190°
2026-05-08 02:34 43.54280 -80.17579 4007 ft 186 kts 203°
2026-05-08 02:34 43.53080 -80.18212 4000 ft 184 kts 212°
2026-05-08 02:35 43.52013 -80.19152 3996 ft 181 kts 219°
2026-05-08 02:35 43.51050 -80.20258 3884 ft 180 kts 233°
2026-05-08 02:35 43.50560 -80.21749 3621 ft 165 kts 260°
2026-05-08 02:35 43.50366 -80.23247 3436 ft 152 kts 254°
2026-05-08 02:36 43.49912 -80.24648 3057 ft 168 kts 252°
2026-05-08 02:36 43.49645 -80.26198 2699 ft 164 kts 259°
2026-05-08 02:36 43.49405 -80.27715 2363 ft 160 kts 257°
2026-05-08 02:36 43.49088 -80.29166 2013 ft 155 kts 252°
2026-05-08 02:37 43.48637 -80.30482 1769 ft 154 kts 245°
2026-05-08 02:37 43.48194 -80.31823 1591 ft 154 kts 248°
2026-05-08 02:37 43.47744 -80.33167 1440 ft 155 kts 242°
2026-05-08 02:37 43.47293 -80.34520 1327 ft 155 kts 248°
2026-05-08 02:38 43.46837 -80.35876 1147 ft 153 kts 246°
2026-05-08 02:38 43.46411 -80.37144 1035 ft 137 kts 244°
2026-05-08 02:38 43.46085 -80.38120 1035 ft 87 kts 245°
2026-05-08 02:38 43.45901 -80.38666 1040 ft 42 kts 245°
2026-05-08 02:39 43.45830 -80.38875 1043 ft 12 kts 245°
2026-05-08 02:39 43.45770 -80.38929 1042 ft 11 kts 176°
2026-05-08 02:39 43.45705 -80.38899 1039 ft 7 kts 156°
2026-05-08 02:39 43.45701 -80.38896 1039 ft 0 kts 156°
2026-05-08 02:40 43.45695 -80.38892 1039 ft 3 kts 153°
2026-05-08 02:40 43.45687 -80.38869 1039 ft 4 kts 99°
2026-05-08 02:40 43.45690 -80.38811 1039 ft 8 kts 77°
2026-05-08 02:40 43.45714 -80.38725 1040 ft 13 kts 67°
2026-05-08 02:41 43.45753 -80.38609 1039 ft 14 kts 65°
2026-05-08 02:41 43.45743 -80.38504 1038 ft 12 kts 122°
2026-05-08 02:41 43.45691 -80.38406 1036 ft 7 kts 127°
2026-05-08 02:41 43.45674 -80.38404 1036 ft 1 kts 200°
2026-05-08 02:42 43.45647 -80.38426 1036 ft 6 kts 213°
2026-05-08 02:42 43.45627 -80.38446 1037 ft 2 kts 217°
2026-05-08 02:42 43.45621 -80.38452 1038 ft 1 kts 217°
2026-05-08 02:42 43.45618 -80.38455 1038 ft 0 kts 217°
2026-05-08 02:43 43.45616 -80.38458 1038 ft 2 kts 218°
2026-05-08 02:43 43.45612 -80.38462 1038 ft 0 kts 218°